[[{"header":{"parameterUnit":"m.s-1","parameterCategory":1,"la1":30.2991,"la2":30.254,"lo1":-89.0895,"lo2":-89.0444,"dy":0.0017,"dx":0.0017,"nx":28,"ny":28,"refTime":"2023-05-26T21:00:00:Z","depth":0,"parameterNumber":2,"parameterNumberName":"U-component_of_WINDS"},"data":[0,0,0,0,0,0,0,0,0,0,0,0,0,0,0,0,0,0,0,0,0,0,0,0,0,0,0,0,0,0,0,0,0,0,0,0,0,0,0,0,0,0,0,0,0,0,0,0,0,0,0,0,0,0,0,0,0,0,-5.6606,-5.6607,0,-5.6742,-5.6743,-5.6745,-5.6606,-5.6601,-5.6596,-5.659,-5.6734,-5.6743,-5.6751,0,0,0,0,0,0,0,0,0,0,0,0,0,-5.6227,-5.6235,-5.6605,-5.6607,-5.6609,-5.6742,-5.6743,-5.6745,-5.6607,-5.6601,-5.6594,-5.6588,-5.6731,-5.6742,-5.6752,0,0,0,0,0,0,0,0,0,0,0,0,0,-5.638,-5.6237,-5.6605,-5.6556,-5.6553,-5.6741,-5.6744,-5.6746,-5.6609,-5.6601,-5.6592,-5.6585,-5.6728,-5.6741,-5.6754,-5.6999,0,0,-5.6794,-5.68,0,0,0,0,0,0,0,0,-5.6372,-5.6394,-5.6561,-5.656,-5.6556,-5.6649,-5.6662,-5.6831,-5.6611,-5.6588,-5.659,-5.6581,-5.6713,-5.6727,-5.677,-5.7005,-5.7012,-5.6796,-5.6804,-5.6809,-5.6813,0,0,0,0,0,0,0,-5.6361,-5.6388,-5.6659,-5.6564,-5.6561,-5.6527,-5.654,-5.6694,-5.6694,-5.6589,-5.6579,-5.6597,-5.671,-5.6758,-5.6772,-5.7014,-5.6795,-5.6807,-5.6815,-5.682,-5.7454,-5.7463,0,0,0,0,0,0,-5.6356,-5.638,-5.6655,-5.6663,-5.6442,-5.6541,-5.6555,-5.6627,-5.6692,-5.6694,-5.6604,-5.659,-5.6739,-5.6757,-5.6777,-5.7066,-5.6809,-5.6822,-5.6829,-5.7446,-5.7456,-5.7466,0,0,0,0,0,0,-5.6348,-5.6382,-5.665,-5.6519,-5.655,-5.6556,-5.6638,-5.6634,-5.6682,-5.6703,-5.6703,-5.6653,-5.6733,-5.6758,-5.6944,-5.7069,-5.6828,-5.684,-5.7435,-5.7449,-5.7461,-5.7648,0,0,0,0,0,0,-5.6338,-5.638,-5.6473,-5.6522,-5.6558,-5.6814,-5.6646,-5.6643,-5.6705,-5.6688,-5.6749,-5.6751,-5.6729,-5.6925,-5.6957,-5.7083,-5.685,-5.7424,-5.7441,-5.7457,-5.7631,-5.7666,-5.7696,0,0,0,0,0,-5.6325,-5.6521,-5.6478,-5.6512,-5.6674,-5.6822,-5.6842,-5.6811,-5.6716,-5.6809,-5.6822,-5.6749,-5.7051,-5.6945,-5.698,-5.7112,-5.7416,-5.7436,-5.7456,-5.7616,-5.7659,-5.7696,0,0,0,0,0,0,-5.6488,-5.6527,-5.6479,-5.6698,-5.6757,-5.6798,-5.6915,-5.6858,-5.6947,-5.6928,-5.6887,-5.6902,-5.7098,-5.7124,-5.7005,-5.7352,-5.7218,-5.7246,-5.7327,-5.7369,-5.7401,-5.739,-5.6861,0,0,0,0,0,-5.6549,-5.6665,-5.6693,-5.6883,-5.6915,-5.691,-5.6973,-5.6944,-5.7004,-5.7029,-5.7056,-5.7119,-5.7227,-5.7299,-5.74,-5.7634,-5.7644,-5.7742,-5.7775,-5.7802,-5.7826,-5.795,-5.7993,-5.7531,-5.7531,-5.7531,0,0,-5.6677,-5.6713,-5.6789,-5.6916,-5.6959,-5.708,-5.6932,-5.7067,-5.7156,-5.705,-5.7226,-5.7248,-5.7315,-5.7525,-5.7619,-5.7553,-5.7956,-5.7827,-5.7848,-5.7858,-5.7975,-5.8018,-5.8057,-5.7545,-5.7542,-5.754,0,0,-5.6972,-5.7011,-5.7172,-5.7217,-5.7283,-5.7278,-5.7317,-5.7366,-5.7376,-5.7552,-5.7474,-5.758,-5.7768,-5.7818,-5.7868,-5.818,-5.8116,-5.8214,-5.8386,-5.8507,-5.8543,-5.8575,-5.8685,-5.8725,-5.8239,-5.8239,-5.824,0,-5.7123,-5.7301,-5.7262,-5.7402,-5.746,-5.7367,-5.753,-5.7576,-5.7673,-5.7715,-5.7639,-5.7871,-5.791,-5.813,-5.8205,-5.825,-5.8292,-5.8207,-5.8541,-5.8573,-5.8602,-5.8706,-5.8748,-5.8251,-5.8249,-5.8248,-5.8247,0,-5.7482,-5.7607,-5.7729,-5.7822,-5.7894,-5.8045,-5.8029,-5.8107,-5.8071,-5.8075,-5.8254,-5.8297,-5.8404,-5.8454,-5.8422,-5.8669,-5.8626,-5.8547,-5.8411,-5.8658,-5.8755,-5.8795,-5.8267,-5.8263,-5.826,-5.8257,0,0,-5.7884,-5.7952,-5.7998,-5.8038,-5.8103,-5.8199,-5.8345,-5.8448,-5.8515,-5.8584,-5.8705,-5.8866,-5.8792,-5.8849,-5.8821,-5.8928,-5.917,-5.8834,-5.8835,-5.8894,-5.9443,-5.9502,-5.9549,-5.9127,-5.9135,-5.9141,-5.9437,0,-5.8179,-5.8431,-5.8399,-5.8641,-5.8755,-5.8668,-5.8795,-5.8849,-5.8856,-5.8955,-5.8962,-5.9076,-5.8971,-5.9004,-5.9106,-5.9119,-5.9279,-5.9097,-5.924,-5.9245,-5.9224,-5.96,-5.9662,-5.994,-5.9475,-5.9481,-5.9486,0,-5.8556,-5.8637,-5.8889,-5.8934,-5.8981,-5.9096,-5.9187,-5.9282,-5.9341,-5.9339,-5.9402,-5.9355,-5.9501,-5.9363,-5.9564,-5.9441,-5.9498,-5.9513,-5.9523,-5.9534,-5.938,-5.962,-6.0028,-6.0069,-5.9546,-5.9541,-5.9537,0,-5.8822,-5.8994,-5.9166,-5.9203,-5.9261,-5.9344,-5.9372,-5.9423,-5.9486,-5.9566,-5.9607,-5.9704,-5.9757,-5.9833,-5.9813,-5.9715,-6.0019,-5.988,-6.0021,-6.0021,-6.0088,-6.0084,-6.0509,-6.0127,-6.0127,-6.0126,-6.0125,0,-5.9153,-5.9311,-5.9285,-5.9392,-5.9565,-5.9528,-5.9701,-5.9719,-5.9765,-5.9873,-5.9805,-5.9908,-5.9876,-5.9978,-5.9964,-6.0131,-6.0157,-6.0159,-6.0153,-6.0164,-6.0164,-6.02,-6.0179,-6.0137,-6.0134,-6.0132,-6.013,0,-5.9479,-5.9468,-5.965,-5.969,-5.9703,-5.9829,-5.9863,-5.9963,-5.9963,-6.0101,-6.0131,-6.0134,-6.025,-6.0237,-6.0368,-6.0358,-6.0566,-6.0538,-6.0546,-6.0539,-6.068,-6.0666,-6.1143,-6.1202,-6.0783,-6.0787,-6.0791,0,-5.969,-5.9809,-5.986,-5.9927,-5.996,-6.0069,-6.0132,-6.01,-6.0169,-6.0245,-6.0336,-6.0445,-6.0531,-6.072,-6.0734,-6.0833,-6.0806,-6.0966,-6.0821,-6.0828,-6.0807,-6.0799,-6.081,-6.0995,-6.0999,-6.1003,-6.1006,0,-6.0066,-6.0055,-6.0148,-6.024,-6.0317,-6.0389,-6.0453,-6.0512,-6.0486,-6.0568,-6.0684,-6.0751,-6.0883,-6.0992,-6.1086,-6.1115,-6.1057,-6.1052,-6.109,-6.1102,-6.1101,-6.1101,-6.0622,-6.1041,-6.1038,-6.1035,-6.1033,-6.1032,-6.034,-6.044,-6.0491,-6.0598,-6.0642,-6.0704,-6.0799,-6.0811,-6.0907,-6.101,-6.0986,-6.1118,-6.1173,-6.1292,-6.1331,-6.1434,-6.1376,-6.1431,-6.1444,-6.1458,-6.1474,-6.1085,-6.1451,-6.145,-6.1449,-6.1448,-6.1448,0,-6.071,-6.0739,-6.0837,-6.0928,-6.1011,-6.0948,-6.1015,-6.109,-6.1206,-6.1261,-6.1346,-6.148,-6.1585,-6.1607,-6.1707,-6.1785,-6.1761,-6.1813,-6.1806,-6.1813,-6.1521,-6.1477,-6.183,-6.183,-6.183,-6.183,-6.183,-6.183,-6.0913,-6.1079,-6.1074,-6.1261,-6.1288,-6.1415,-6.1459,-6.1515,-6.1559,-6.171,-6.1797,-6.1809,-6.1852,-6.1954,-6.2048,-6.2052,-6.2091,-6.2153,-6.2147,-6.1873,-6.1834,-6.1798,-6.1757,-6.2163,-6.2163,-6.243,-6.2433,-6.2435]},{"header":{"parameterUnit":"m.s-1","parameterCategory":1,"la1":30.2991,"la2":30.254,"lo1":-89.0895,"lo2":-89.0444,"dy":0.0017,"dx":0.0017,"nx":28,"ny":28,"refTime":"2023-05-26T21:00:00:Z","depth":0,"parameterNumber":3,"parameterNumberName":"V-component_of_WINDS"},"data":[0,0,0,0,0,0,0,0,0,0,0,0,0,0,0,0,0,0,0,0,0,0,0,0,0,0,0,0,0,0,0,0,0,0,0,0,0,0,0,0,0,0,0,0,0,0,0,0,0,0,0,0,0,0,0,0,0,0,-1.8496,-1.8496,0,-1.8484,-1.8484,-1.8484,-1.8456,-1.8456,-1.8455,-1.8455,-1.8443,-1.8443,-1.8443,0,0,0,0,0,0,0,0,0,0,0,0,0,-1.8491,-1.8492,-1.8496,-1.8496,-1.8495,-1.8485,-1.8484,-1.8484,-1.8457,-1.8456,-1.8455,-1.8454,-1.8443,-1.8443,-1.8443,0,0,0,0,0,0,0,0,0,0,0,0,0,-1.8488,-1.8492,-1.8496,-1.848,-1.8479,-1.8485,-1.8484,-1.8484,-1.8457,-1.8456,-1.8455,-1.8454,-1.8443,-1.8443,-1.8443,-1.8463,0,0,-1.8444,-1.8444,0,0,0,0,0,0,0,0,-1.8488,-1.8488,-1.8483,-1.8481,-1.848,-1.8471,-1.8478,-1.8477,-1.8457,-1.8465,-1.8455,-1.8454,-1.8453,-1.8452,-1.8452,-1.8462,-1.8462,-1.8444,-1.8445,-1.8445,-1.8445,0,0,0,0,0,0,0,-1.8489,-1.8489,-1.8491,-1.8483,-1.8481,-1.8473,-1.8472,-1.8478,-1.8464,-1.8464,-1.8462,-1.8461,-1.8452,-1.8452,-1.8452,-1.8462,-1.8444,-1.8445,-1.8445,-1.8445,-1.8485,-1.8486,0,0,0,0,0,0,-1.8491,-1.8489,-1.8492,-1.8491,-1.8482,-1.8474,-1.8473,-1.8475,-1.8464,-1.8461,-1.8462,-1.846,-1.8452,-1.8451,-1.8451,-1.8472,-1.8445,-1.8445,-1.8445,-1.8485,-1.8486,-1.8486,0,0,0,0,0,0,-1.8491,-1.8492,-1.8492,-1.8489,-1.8489,-1.8475,-1.8478,-1.8475,-1.8475,-1.8462,-1.8459,-1.8465,-1.8451,-1.8451,-1.846,-1.8471,-1.8445,-1.8445,-1.8483,-1.8485,-1.8486,-1.8515,0,0,0,0,0,0,-1.8491,-1.8492,-1.85,-1.849,-1.8489,-1.8502,-1.8479,-1.8475,-1.8476,-1.8473,-1.8464,-1.8462,-1.845,-1.8459,-1.846,-1.8471,-1.8446,-1.8482,-1.8484,-1.8486,-1.8513,-1.8517,-1.852,0,0,0,0,0,-1.8491,-1.8509,-1.85,-1.8501,-1.8499,-1.8502,-1.8502,-1.8488,-1.8477,-1.8484,-1.8475,-1.8462,-1.847,-1.8461,-1.8461,-1.8472,-1.8482,-1.8484,-1.8485,-1.8511,-1.8516,-1.852,0,0,0,0,0,0,-1.852,-1.8507,-1.8498,-1.8512,-1.8509,-1.8498,-1.8506,-1.8495,-1.8494,-1.8491,-1.8475,-1.8473,-1.8484,-1.8479,-1.8469,-1.849,-1.8473,-1.8476,-1.8493,-1.8497,-1.8501,-1.8502,-1.8446,0,0,0,0,0,-1.8529,-1.8533,-1.8521,-1.8535,-1.8534,-1.852,-1.8522,-1.8511,-1.8507,-1.8505,-1.8497,-1.8493,-1.8494,-1.8496,-1.8496,-1.8512,-1.8509,-1.852,-1.8524,-1.8527,-1.8529,-1.8535,-1.8539,-1.8493,-1.8493,-1.8493,0,0,-1.8545,-1.8539,-1.8543,-1.8541,-1.8537,-1.8541,-1.8519,-1.8525,-1.8528,-1.8506,-1.8514,-1.8508,-1.8502,-1.8514,-1.8519,-1.851,-1.8541,-1.853,-1.8532,-1.8532,-1.8537,-1.8542,-1.8546,-1.8494,-1.8494,-1.8494,0,0,-1.8578,-1.8574,-1.8584,-1.8581,-1.8574,-1.8565,-1.8568,-1.8558,-1.8553,-1.8561,-1.8544,-1.8547,-1.855,-1.8546,-1.8544,-1.8574,-1.8561,-1.8575,-1.8595,-1.8601,-1.8604,-1.8608,-1.8617,-1.862,-1.8577,-1.8577,-1.8577,0,-1.86,-1.8606,-1.8591,-1.8598,-1.8597,-1.8577,-1.8587,-1.8584,-1.8578,-1.8578,-1.8568,-1.857,-1.8565,-1.8575,-1.8582,-1.8582,-1.8583,-1.8575,-1.8605,-1.8608,-1.8611,-1.8619,-1.8623,-1.8578,-1.8578,-1.8578,-1.8578,0,-1.8632,-1.8636,-1.8645,-1.864,-1.864,-1.8648,-1.8634,-1.8636,-1.8626,-1.8618,-1.8625,-1.8617,-1.8616,-1.8617,-1.8608,-1.8625,-1.862,-1.8608,-1.8591,-1.8617,-1.8625,-1.8628,-1.8581,-1.858,-1.858,-1.8579,0,0,-1.8683,-1.8669,-1.8672,-1.8669,-1.866,-1.8663,-1.8669,-1.8667,-1.8669,-1.8665,-1.867,-1.8672,-1.866,-1.8659,-1.8648,-1.8654,-1.8676,-1.8641,-1.864,-1.8647,-1.8693,-1.8701,-1.8706,-1.8667,-1.8668,-1.8668,-1.8693,0,-1.8713,-1.8723,-1.871,-1.8723,-1.8726,-1.8707,-1.8712,-1.8707,-1.8699,-1.87,-1.8691,-1.8693,-1.8678,-1.8677,-1.8681,-1.8672,-1.8685,-1.867,-1.867,-1.867,-1.8671,-1.871,-1.8719,-1.8743,-1.8696,-1.8697,-1.8697,0,-1.8749,-1.8746,-1.876,-1.8749,-1.8749,-1.8755,-1.8751,-1.8752,-1.8746,-1.8739,-1.8737,-1.8724,-1.8729,-1.8713,-1.8718,-1.8709,-1.8708,-1.8703,-1.8704,-1.8702,-1.8685,-1.8709,-1.875,-1.8753,-1.8702,-1.8702,-1.8701,0,-1.8783,-1.8783,-1.8791,-1.8789,-1.8776,-1.878,-1.8775,-1.8768,-1.8767,-1.8763,-1.8762,-1.876,-1.8758,-1.8756,-1.8742,-1.8732,-1.8749,-1.8732,-1.8743,-1.8744,-1.8747,-1.8747,-1.8788,-1.8748,-1.8748,-1.8748,-1.8748,0,-1.8817,-1.8825,-1.8806,-1.881,-1.8819,-1.8803,-1.8812,-1.8805,-1.8798,-1.88,-1.8784,-1.8786,-1.8769,-1.8769,-1.8758,-1.8764,-1.8764,-1.8758,-1.8755,-1.8759,-1.8759,-1.8757,-1.8755,-1.8749,-1.8749,-1.8749,-1.8749,0,-1.8856,-1.8843,-1.885,-1.8838,-1.8835,-1.8841,-1.883,-1.8834,-1.8824,-1.8827,-1.8827,-1.8813,-1.8812,-1.8798,-1.8795,-1.8787,-1.8797,-1.8791,-1.8799,-1.8797,-1.8808,-1.8807,-1.8849,-1.8853,-1.8811,-1.8812,-1.8812,0,-1.8878,-1.8884,-1.8872,-1.8872,-1.8868,-1.8869,-1.8867,-1.8852,-1.8851,-1.8843,-1.8847,-1.8845,-1.8842,-1.8842,-1.8831,-1.8827,-1.8821,-1.8836,-1.882,-1.8824,-1.8819,-1.8819,-1.8819,-1.8839,-1.8839,-1.884,-1.884,0,-1.8918,-1.8911,-1.891,-1.8906,-1.8905,-1.8902,-1.8897,-1.8898,-1.8881,-1.8881,-1.888,-1.8878,-1.8874,-1.8871,-1.8866,-1.886,-1.8847,-1.8845,-1.8847,-1.8851,-1.8855,-1.8851,-1.8807,-1.8844,-1.8844,-1.8843,-1.8843,-1.8843,-1.8948,-1.8952,-1.8944,-1.8943,-1.8937,-1.8933,-1.8935,-1.8926,-1.8925,-1.892,-1.8911,-1.8911,-1.8902,-1.8894,-1.8889,-1.8888,-1.888,-1.8884,-1.8885,-1.8885,-1.8887,-1.8856,-1.8887,-1.8887,-1.8887,-1.8887,-1.8887,0,-1.8986,-1.898,-1.8979,-1.8972,-1.8971,-1.8959,-1.8953,-1.8953,-1.8953,-1.8946,-1.8944,-1.8942,-1.8939,-1.8927,-1.8923,-1.8925,-1.8918,-1.8924,-1.8923,-1.8922,-1.8895,-1.8893,-1.8929,-1.8929,-1.8929,-1.8929,-1.8929,-1.8929,-1.9006,-1.9011,-1.9003,-1.9005,-1.8998,-1.8998,-1.8995,-1.8991,-1.8985,-1.8984,-1.8981,-1.8974,-1.8965,-1.8959,-1.8956,-1.8953,-1.8951,-1.8959,-1.8953,-1.8928,-1.8924,-1.892,-1.8918,-1.8959,-1.8959,-1.898,-1.898,-1.898]}]]